Tracking 29782 objects as of 13-Oct-2024
HD Live streaming from Space Station
objects crossing your sky now

COSMOS 1275 DEB

Track COSMOS 1275 DEB now!
10-day predictions


NORAD ID: 39968
Int'l Code: 1981-053PL
Perigee: 922.5 km
Apogee: 1,034.9 km
Inclination: 83.1 °
Period: 104.5 minutes
Semi major axis: 7349 km
RCS: 0.0026 m2 (small)
Launch date: April 25, 1981
Source: Commonwealth of Independent States (former USSR) (CIS)
Launch site: PLESETSK MISSILE AND SPACE COMPLEX (PKMTR)

Note: This is SATELLITE DEBRIS
Your satellite tracking list
Your tracking list is empty




NASA's NSSDC Master Catalog

Two Line Element Set (TLE):
1 39968U 81053PE  24286.67137318  .00004409  00000-0  42970-2 0  9991
2 39968  83.1423  70.1278 0076461 332.9640  26.7544 13.77838164978228
Source of the keplerian elements: AFSPC